Wind_Speed
6 6 5 7 10 11 10 11 11 11 11 10 10 11 11 10 10 10 10 10 9 9 9 9 9 8 8 8 8 8 8 8 8 8 8 8 7 7 7 7 7 6 6
6 6 6 8 10 10 10 11 11 11 11 11 11 10 10 10 10 9 9 9 9 8 8 9 8 7 7 7 7 7 7 7 7 7 7 7 7 7 6 6 5 5 5
5 6 6 8 9 9 9 10 11 11 11 11 11 10 9 9 9 9 9 8 8 8 7 8 8 7 7 6 6 6 6 6 6 6 6 6 6 6 6 5 5 5 4
5 6 7 8 8 8 9 10 11 11 11 11 11 10 9 9 8 9 9 8 8 8 8 7 8 8 6 6 6 6 5 5 6 6 5 5 5 5 5 5 5 4 4
5 6 7 8 8 8 8 9 10 11 11 11 11 10 9 9 8 8 8 8 8 8 7 7 7 7 6 5 5 5 5 4 5 5 4 4 5 5 5 4 4 4 4
5 6 7 8 8 8 8 9 10 11 12 11 10 10 10 8 7 8 8 8 8 7 7 6 7 6 6 5 4 4 4 4 3 4 4 4 4 4 4 4 3 4 4
5 7 7 7 8 7 8 9 10 11 11 11 10 10 9 8 7 8 7 8 7 6 6 5 6 5 5 4 3 3 3 3 3 3 3 3 3 3 3 2 2 2 3
6 6 7 7 7 6 7 8 10 10 10 10 10 10 9 9 7 7 8 7 7 6 5 5 5 5 4 3 3 3 2 2 3 3 3 3 2 2 1 1 1 1 1
5 6 6 6 7 7 7 8 10 10 10 10 10 10 9 8 7 7 7 7 7 7 6 5 4 4 4 3 3 2 2 2 3 3 3 2 2 2 1 0 0 1 1
5 5 5 5 7 7 7 9 10 10 10 11 10 9 8 8 7 7 7 7 6 6 6 6 5 4 4 4 3 3 3 3 3 3 3 2 2 2 1 1 2 2 2
6 6 5 5 6 6 8 9 9 10 10 11 10 9 8 8 8 8 7 7 6 6 7 6 5 4 4 4 4 3 3 3 3 3 3 2 2 2 2 2 3 3 3
6 6 5 5 5 6 7 8 9 9 10 11 10 9 8 7 7 8 8 7 7 7 7 7 6 5 4 4 4 4 3 2 2 3 3 3 2 2 2 3 3 3 3
7 6 5 5 5 6 7 8 9 8 9 9 8 8 8 7 7 8 8 7 7 7 7 7 6 6 5 5 5 4 3 3 3 3 3 3 3 3 3 3 3 3 3
8 7 6 5 5 5 5 7 8 9 8 8 7 7 7 7 7 8 7 7 7 8 7 6 6 6 5 5 6 5 4 4 4 3 3 4 4 3 3 4 4 4 4
8 7 6 4 4 3 4 6 6 7 7 8 7 6 7 7 7 7 7 7 7 8 7 6 6 6 5 6 6 5 4 4 4 4 4 5 5 4 5 5 5 4 3
7 6 5 4 3 2 2 4 5 5 7 7 7 7 6 6 7 7 7 7 7 7 7 7 7 7 6 6 6 6 6 5 5 5 5 5 5 5 5 5 5 4 3
6 5 4 3 2 1 1 3 4 5 6 7 7 6 6 6 7 7 8 8 8 7 7 6 6 6 7 7 8 7 6 6 6 6 5 5 6 6 6 5 5 5 5
4 3 3 2 2 1 1 3 4 5 6 6 5 5 5 6 7 8 8 8 8 8 8 8 7 7 7 7 8 8 8 7 8 7 6 7 6 6 6 6 6 6 6
5 4 3 3 2 2 2 3 4 6 6 6 5 5 5 6 7 8 8 9 9 9 9 9 8 8 8 8 7 7 8 8 8 7 7 7 6 7 7 7 7 8 8
5 5 4 3 3 2 2 3 4 5 6 6 6 5 5 6 8 8 8 9 9 10 9 9 9 9 8 9 9 8 8 9 9 8 8 8 8 8 8 9 8 9 9
6 6 5 5 4 3 2 3 4 4 5 7 7 7 7 7 8 8 9 9 9 10 10 10 10 10 10 10 10 10 10 10 10 10 10 10 10 10 10 10 10 10 10
7 6 6 6 5 5 3 3 4 4 5 7 7 7 8 8 8 9 9 9 10 11 11 11 11 11 11 11 12 12 12 12 11 12 12 12 12 12 12 12 12 12 12
8 7 7 7 7 6 6 4 4 5 6 7 7 8 9 9 9 9 10 10 10 10 10 11 12 11 11 12 12 12 13 13 13 13 13 13 14 15 14 14 14 13 13
9 8 8 8 7 7 7 7 6 6 6 7 8 9 10 10 10 10 10 10 10 11 11 12 11 11 12 12 12 13 13 14 14 14 14 15 15 16 15 15 15 14 15
9 9 9 9 8 7 8 8 7 7 7 7 8 8 9 9 10 10 11 11 11 12 12 12 12 13 13 12 13 14 14 15 15 15 15 15 15 15 15 15 15 15 16
11 10 10 9 8 8 8 9 9 8 9 8 8 9 9 10 11 11 11 12 13 13 13 13 14 14 14 14 15 15 15 15 16 16 16 16 17 17 17 16 17 17 18
Wind_Direction
103 116 120 137 150 151 150 152 151 149 147 145 143 141 138 137 137 137 136 133 131 130 128 125 124 120 117 115 107 104 103 100 97 94 92 95 95 94 96 98 100 102 101
107 115 112 129 141 144 146 151 153 153 153 151 149 148 145 143 142 144 142 140 138 134 134 131 128 125 123 117 112 112 108 102 101 96 92 91 91 94 96 96 100 101 101
109 117 120 130 138 143 149 156 159 160 159 156 153 153 148 147 147 148 147 144 143 141 136 137 135 132 130 125 117 116 115 107 105 100 95 94 92 96 97 99 101 101 99
107 119 127 134 140 145 152 163 166 165 164 160 156 153 152 151 153 148 149 148 147 148 141 138 141 138 132 129 122 117 115 113 113 104 101 97 94 98 98 100 101 100 99
112 124 131 141 147 150 156 165 170 170 171 166 163 158 156 155 156 156 150 151 147 145 143 141 144 142 136 129 122 122 121 117 120 115 108 104 102 101 100 98 99 100 103
117 130 136 147 149 152 160 169 173 173 174 172 168 162 162 163 163 160 159 157 156 149 145 150 154 151 140 130 125 123 128 130 132 130 123 117 111 103 100 98 97 93 92
125 132 135 139 148 155 160 168 175 176 179 179 173 168 165 167 164 158 154 161 159 157 158 162 159 154 146 138 135 121 133 150 158 154 145 137 129 117 104 97 98 92 81
135 140 136 141 151 159 164 173 174 176 181 181 172 167 164 166 164 159 152 159 161 165 167 168 167 168 161 161 163 147 149 168 175 172 166 162 150 136 123 100 92 89 75
134 140 145 150 153 152 160 169 173 173 180 181 174 170 165 168 171 170 165 164 167 170 174 174 172 178 183 184 192 189 189 197 192 185 182 180 178 172 176 207 309 320 329
122 140 151 160 160 160 164 173 172 174 179 180 177 172 169 172 172 174 173 173 177 180 179 174 176 194 196 202 210 215 221 226 209 195 190 197 210 216 226 255 273 278 285
110 132 142 157 162 166 170 174 175 176 179 181 176 175 175 179 181 180 178 179 184 186 188 189 191 199 205 209 213 217 228 236 221 207 203 215 239 239 249 263 273 289 294
101 122 132 151 170 173 168 170 173 175 181 181 178 179 181 184 188 183 184 186 189 194 197 200 207 215 217 215 213 211 225 224 215 211 208 225 243 250 262 273 285 295 300
96 110 120 131 153 164 166 172 175 173 174 176 178 181 186 188 193 192 192 194 196 199 205 218 216 220 220 221 215 217 224 215 203 206 214 229 246 258 271 279 288 298 302
92 103 113 123 129 139 161 171 176 179 177 176 179 187 189 190 194 201 199 199 201 202 205 218 216 216 215 215 220 222 225 219 208 218 226 235 242 255 270 282 293 301 309
77 81 91 105 119 127 157 173 174 180 178 182 182 182 184 187 193 201 200 199 201 203 205 213 217 214 207 215 217 218 215 221 219 232 239 246 249 255 268 274 283 291 296
69 70 75 80 80 106 169 176 172 174 177 182 185 186 186 188 193 200 199 201 204 204 205 213 219 218 219 224 221 222 229 227 228 237 249 253 254 264 275 282 280 273 286
57 60 64 63 72 77 155 172 180 182 182 183 190 196 196 195 202 203 202 207 206 204 215 219 227 229 224 221 225 230 232 230 234 241 251 253 259 261 266 279 289 285 287
33 35 40 45 37 12 172 182 194 190 184 187 188 197 206 209 211 210 212 216 218 222 228 232 235 239 236 230 231 229 229 225 230 236 244 252 261 264 271 280 287 293 296
11 9 9 359 343 309 220 197 198 200 196 198 199 207 211 215 218 222 221 223 225 227 232 239 237 241 245 249 246 239 235 231 234 240 254 260 262 270 276 280 283 288 290
353 359 358 347 328 315 239 213 215 214 207 210 216 222 227 223 224 229 229 228 232 233 238 242 243 247 250 251 250 251 247 243 244 251 258 260 264 269 273 278 283 285 288
348 345 340 331 324 308 268 230 227 222 222 228 229 234 240 241 237 236 235 236 238 240 244 248 250 253 253 252 254 255 254 252 250 255 260 260 264 267 273 279 284 286 285
334 333 327 322 316 300 285 247 229 228 234 240 245 248 250 252 246 241 239 244 245 248 251 253 255 255 257 257 256 255 254 255 253 259 262 264 268 269 274 278 282 282 282
319 322 319 314 305 292 281 260 250 240 237 242 248 254 258 257 249 246 247 252 253 255 255 258 261 257 259 259 258 257 256 253 257 261 264 268 271 271 274 277 279 279 281
305 307 309 308 300 289 277 270 257 257 255 256 260 264 266 261 258 256 256 260 264 259 259 260 259 261 262 262 260 261 260 258 259 264 269 269 271 272 275 278 278 279 281
292 298 303 303 294 287 280 270 259 262 261 267 269 271 267 263 264 261 262 266 264 264 264 261 261 264 266 267 265 263 261 260 261 266 270 272 275 277 278 279 278 280 283
289 292 298 299 288 291 289 284 275 267 268 270 273 275 275 275 273 271 270 269 265 266 267 267 264 264 266 267 265 264 264 264 265 266 269 273 276 278 280 281 281 281 284
Height
5884 5884 5882 5879 5881 5885 5888 5889 5891 5892 5893 5894 5895 5896 5897 5898 5898 5899 5900 5900 5901 5902 5903 5903 5904 5905 5905 5906 5906 5906 5906 5907 5907 5907 5907 5907 5907 5907 5907 5907 5907 5907 5907
5886 5885 5885 5883 5884 5887 5888 5890 5891 5892 5893 5895 5896 5896 5897 5898 5899 5900 5900 5901 5902 5903 5903 5904 5905 5906 5906 5907 5907 5907 5908 5908 5908 5908 5908 5908 5908 5908 5908 5908 5908 5908 5908
5886 5886 5886 5886 5887 5888 5889 5890 5892 5893 5894 5895 5896 5897 5898 5898 5899 5900 5901 5902 5902 5903 5904 5905 5906 5907 5907 5908 5908 5909 5909 5909 5909 5909 5910 5910 5909 5909 5909 5909 5909 5909 5909
5887 5887 5887 5888 5889 5889 5890 5891 5892 5893 5894 5896 5897 5897 5898 5899 5899 5900 5901 5902 5903 5904 5904 5905 5906 5907 5908 5909 5909 5910 5910 5910 5910 5911 5911 5911 5910 5910 5911 5911 5910 5910 5910
5888 5888 5888 5889 5889 5890 5891 5892 5893 5894 5895 5896 5897 5898 5898 5899 5900 5901 5901 5902 5903 5904 5905 5906 5907 5908 5909 5910 5910 5911 5911 5911 5911 5912 5912 5912 5912 5912 5912 5912 5911 5911 5911
5888 5888 5888 5889 5890 5891 5891 5892 5893 5894 5895 5896 5897 5898 5899 5900 5901 5901 5902 5903 5904 5905 5906 5907 5908 5908 5909 5910 5911 5911 5912 5912 5912 5913 5913 5913 5913 5913 5913 5913 5912 5912 5912
5889 5889 5889 5890 5891 5891 5892 5893 5894 5894 5896 5897 5898 5899 5899 5900 5901 5902 5902 5903 5904 5905 5906 5907 5908 5909 5910 5910 5911 5912 5912 5912 5913 5913 5913 5913 5914 5913 5913 5913 5913 5913 5913
5889 5890 5890 5891 5891 5892 5892 5893 5894 5895 5896 5897 5898 5899 5900 5901 5902 5902 5903 5904 5905 5906 5907 5908 5908 5909 5910 5910 5911 5912 5912 5913 5913 5913 5913 5914 5914 5914 5914 5914 5914 5913 5913
5889 5890 5891 5891 5892 5893 5893 5894 5894 5896 5897 5898 5898 5899 5900 5901 5902 5903 5904 5905 5905 5906 5907 5908 5908 5909 5910 5910 5911 5912 5912 5913 5913 5913 5913 5914 5914 5914 5914 5914 5914 5914 5914
5890 5891 5891 5892 5892 5893 5893 5894 5895 5896 5897 5898 5899 5899 5901 5901 5902 5903 5904 5905 5906 5906 5907 5908 5909 5909 5909 5910 5911 5912 5912 5912 5913 5913 5913 5914 5914 5914 5914 5914 5914 5914 5913
5891 5892 5892 5892 5893 5893 5894 5895 5895 5896 5897 5898 5899 5900 5901 5902 5902 5903 5904 5905 5906 5907 5907 5908 5908 5909 5909 5910 5911 5911 5912 5912 5912 5913 5913 5914 5914 5914 5914 5914 5913 5913 5913
5893 5893 5893 5893 5894 5894 5895 5895 5896 5896 5897 5898 5899 5900 5901 5902 5902 5903 5904 5905 5906 5906 5907 5907 5908 5908 5909 5909 5910 5911 5911 5912 5912 5912 5913 5913 5914 5914 5913 5913 5913 5913 5913
5894 5894 5894 5894 5894 5895 5895 5896 5896 5897 5897 5898 5898 5899 5900 5901 5902 5903 5904 5904 5905 5906 5906 5907 5907 5907 5908 5909 5909 5910 5911 5911 5911 5912 5913 5913 5913 5913 5913 5913 5913 5912 5912
5896 5896 5895 5895 5895 5895 5896 5896 5896 5897 5897 5898 5898 5899 5900 5901 5902 5903 5904 5904 5905 5905 5906 5906 5906 5907 5908 5908 5909 5909 5910 5911 5911 5912 5912 5912 5913 5913 5913 5913 5912 5912 5912
5898 5897 5896 5896 5896 5896 5896 5896 5897 5897 5898 5898 5899 5900 5900 5901 5902 5903 5904 5904 5904 5905 5906 5906 5906 5907 5907 5907 5908 5909 5910 5910 5911 5911 5912 5912 5912 5912 5912 5912 5911 5911 5911
5900 5899 5898 5897 5897 5896 5896 5896 5897 5897 5897 5898 5899 5900 5901 5901 5902 5903 5904 5904 5905 5905 5906 5906 5906 5907 5907 5907 5908 5909 5909 5910 5910 5911 5911 5911 5911 5911 5911 5911 5911 5910 5910
5901 5900 5899 5898 5897 5897 5897 5897 5897 5897 5898 5899 5899 5900 5900 5901 5902 5903 5903 5904 5904 5905 5905 5906 5906 5906 5906 5906 5907 5908 5908 5909 5909 5910 5910 5910 5910 5910 5910 5910 5910 5909 5909
5901 5900 5899 5898 5898 5897 5896 5896 5897 5897 5898 5898 5899 5900 5900 5900 5901 5902 5903 5904 5904 5904 5905 5905 5905 5906 5906 5906 5906 5907 5907 5908 5908 5909 5909 5909 5909 5909 5909 5909 5909 5908 5908
5902 5900 5899 5899 5898 5897 5896 5896 5896 5897 5898 5898 5899 5899 5899 5900 5900 5901 5902 5903 5903 5904 5904 5904 5904 5905 5905 5905 5905 5906 5906 5906 5907 5908 5908 5908 5908 5908 5907 5907 5907 5907 5906
5902 5901 5899 5899 5898 5897 5896 5896 5896 5897 5897 5897 5898 5899 5899 5899 5899 5900 5900 5901 5902 5902 5903 5903 5903 5903 5904 5904 5904 5904 5905 5905 5906 5906 5906 5906 5906 5906 5906 5906 5905 5905 5904
5902 5901 5900 5898 5898 5897 5897 5896 5896 5896 5897 5897 5897 5898 5898 5898 5898 5899 5899 5900 5900 5901 5901 5902 5902 5902 5902 5902 5903 5903 5903 5903 5904 5904 5904 5904 5904 5904 5904 5903 5903 5903 5902
5902 5901 5899 5898 5897 5897 5896 5896 5896 5896 5896 5896 5896 5896 5896 5897 5897 5897 5898 5898 5899 5899 5899 5900 5900 5900 5900 5901 5901 5901 5901 5902 5901 5902 5902 5902 5902 5902 5901 5901 5901 5900 5900
5902 5900 5899 5898 5897 5896 5895 5895 5895 5895 5895 5896 5895 5895 5895 5895 5895 5895 5896 5897 5897 5897 5898 5898 5898 5898 5898 5898 5898 5899 5899 5899 5899 5899 5899 5899 5899 5899 5899 5898 5898 5897 5897
5901 5899 5898 5896 5895 5894 5894 5894 5894 5894 5894 5894 5894 5894 5894 5893 5893 5894 5894 5895 5895 5895 5896 5896 5896 5896 5896 5896 5896 5896 5897 5897 5897 5897 5897 5896 5896 5896 5896 5895 5895 5894 5894
5899 5898 5896 5894 5893 5893 5893 5893 5892 5893 5893 5892 5892 5892 5892 5892 5892 5892 5892 5893 5893 5893 5893 5893 5893 5894 5894 5893 5893 5894 5894 5894 5894 5894 5894 5893 5893 5892 5892 5892 5891 5891 5890
5897 5896 5895 5893 5892 5891 5891 5891 5891 5891 5891 5891 5891 5890 5890 5890 5890 5890 5890 5890 5890 5890 5890 5891 5891 5891 5891 5891 5890 5891 5891 5891 5891 5891 5891 5890 5889 5889 5888 5888 5887 5887 5886